TimeCDT,TemperatureF,Dew PointF,Humidity,Sea Level PressureIn,VisibilityMPH,Wind Direction,Wind SpeedMPH,Gust SpeedMPH,PrecipitationIn,Events,Conditions,WindDirDegrees,DateUTC
12:15 AM,64.6,47.7,54,30.14,10.0,ESE,8.1,-,N/A,,Overcast,120,2013-05-25 05:15:00
12:35 AM,64.4,46.8,53,30.12,10.0,SE,9.2,-,N/A,,Overcast,130,2013-05-25 05:35:00
12:55 AM,64.0,46.6,53,30.11,10.0,SE,10.4,-,N/A,Thunderstorm,Overcast,130,2013-05-25 05:55:00
1:15 AM,64.4,46.0,51,30.11,10.0,SE,13.8,-,N/A,,Overcast,140,2013-05-25 06:15:00
1:35 AM,63.9,45.9,52,30.09,10.0,SE,12.7,21.9,N/A,,Overcast,140,2013-05-25 06:35:00
1:55 AM,63.9,45.7,52,30.09,10.0,SE,13.8,20.7,N/A,,Overcast,140,2013-05-25 06:55:00
2:15 AM,63.7,45.5,52,30.09,10.0,SE,15.0,23.0,N/A,,Overcast,140,2013-05-25 07:15:00
2:35 AM,63.9,45.5,51,30.08,10.0,SE,16.1,21.9,N/A,,Overcast,140,2013-05-25 07:35:00
2:55 AM,63.7,45.7,52,30.08,10.0,SSE,16.1,23.0,N/A,,Overcast,150,2013-05-25 07:55:00
3:15 AM,63.7,45.9,52,30.08,10.0,SSE,13.8,18.4,N/A,,Overcast,150,2013-05-25 08:15:00
3:35 AM,63.7,46.0,53,30.07,10.0,SSE,12.7,20.7,N/A,,Mostly Cloudy,150,2013-05-25 08:35:00
3:55 AM,63.5,46.8,54,30.06,10.0,SSE,13.8,17.3,N/A,,Overcast,150,2013-05-25 08:55:00
4:15 AM,63.5,47.5,56,30.06,10.0,SSE,12.7,17.3,N/A,,Mostly Cloudy,160,2013-05-25 09:15:00
4:35 AM,64.4,48.6,56,30.04,10.0,SSE,16.1,21.9,N/A,,Overcast,160,2013-05-25 09:35:00
4:55 AM,64.8,50.0,59,30.04,10.0,South,17.3,23.0,N/A,Thunderstorm,Overcast,170,2013-05-25 09:55:00
5:15 AM,64.4,51.4,63,30.05,10.0,South,15.0,-,N/A,Rain-Thunderstorm,Light Thunderstorms and Rain,190,2013-05-25 10:15:00
5:35 AM,61.3,54.5,78,30.05,10.0,SSW,10.4,18.4,0.01,Rain-Thunderstorm,Light Thunderstorms and Rain,200,2013-05-25 10:35:00
5:55 AM,61.3,56.3,83,30.08,10.0,SW,11.5,-,0.01,Rain-Thunderstorm,Rain,230,2013-05-25 10:55:00
6:15 AM,61.0,57.4,88,30.07,10.0,SW,10.4,-,N/A,Rain-Thunderstorm,Light Thunderstorms and Rain,220,2013-05-25 11:15:00
6:35 AM,61.7,60.6,96,30.04,10.0,SW,12.7,-,0.02,Rain,Light Rain,220,2013-05-25 11:35:00
6:55 AM,62.1,61.7,99,30.07,10.0,SW,15.0,-,0.03,Rain,Light Rain,220,2013-05-25 11:55:00
7:15 AM,61.9,61.7,99,30.07,10.0,WSW,16.1,-,N/A,,Scattered Clouds,240,2013-05-25 12:15:00
7:35 AM,62.1,61.9,99,30.09,10.0,West,11.5,-,N/A,,Scattered Clouds,270,2013-05-25 12:35:00
7:55 AM,62.6,62.1,98,30.09,10.0,West,10.4,-,N/A,,Overcast,280,2013-05-25 12:55:00
8:15 AM,63.1,62.8,99,30.07,10.0,SW,8.1,-,N/A,,Overcast,220,2013-05-25 13:15:00
8:35 AM,64.8,63.9,97,30.09,10.0,SW,10.4,-,N/A,Thunderstorm,Scattered Clouds,230,2013-05-25 13:35:00
8:55 AM,64.9,63.9,96,30.09,10.0,WSW,8.1,-,N/A,,Mostly Cloudy,240,2013-05-25 13:55:00
9:15 AM,65.8,64.4,95,30.12,10.0,West,6.9,-,N/A,,Overcast,280,2013-05-25 14:15:00
9:35 AM,65.8,64.0,94,30.12,10.0,West,8.1,-,N/A,,Overcast,260,2013-05-25 14:35:00
9:55 AM,66.4,63.9,92,30.12,10.0,WSW,9.2,-,N/A,,Overcast,250,2013-05-25 14:55:00
10:15 AM,67.1,64.6,92,30.09,10.0,SW,3.5,-,N/A,,Overcast,220,2013-05-25 15:15:00
10:35 AM,68.2,64.9,89,30.04,10.0,South,12.7,-,N/A,,Scattered Clouds,170,2013-05-25 15:35:00
10:55 AM,69.4,65.3,87,30.00,10.0,South,16.1,-,N/A,,Clear,180,2013-05-25 15:55:00
11:15 AM,70.7,64.8,81,30.00,10.0,South,17.3,-,N/A,,Clear,180,2013-05-25 16:15:00
11:35 AM,71.6,65.5,81,29.99,10.0,South,19.6,29.9,N/A,,Clear,190,2013-05-25 16:35:00
11:55 AM,73.2,65.7,77,30.04,10.0,ESE,5.8,-,N/A,,Clear,110,2013-05-25 16:55:00
12:15 PM,74.5,65.5,73,30.04,10.0,SE,3.5,-,N/A,,Scattered Clouds,140,2013-05-25 17:15:00
12:35 PM,73.8,66.0,77,30.03,10.0,ENE,8.1,-,N/A,,Scattered Clouds,70,2013-05-25 17:35:00
12:55 PM,72.0,65.7,80,30.04,10.0,NE,8.1,-,N/A,,Mostly Cloudy,50,2013-05-25 17:55:00
1:15 PM,71.6,65.1,80,30.03,10.0,ENE,10.4,-,N/A,,Overcast,70,2013-05-25 18:15:00
1:35 PM,74.3,66.7,77,30.02,10.0,ENE,11.5,17.3,N/A,,Scattered Clouds,70,2013-05-25 18:35:00
1:55 PM,72.3,65.3,78,30.02,10.0,ENE,12.7,-,N/A,,Mostly Cloudy,60,2013-05-25 18:55:00
2:15 PM,73.6,64.8,74,30.01,10.0,ENE,12.7,17.3,N/A,,Mostly Cloudy,70,2013-05-25 19:15:00
2:35 PM,73.4,64.2,73,30.02,10.0,ENE,13.8,-,N/A,,Overcast,70,2013-05-25 19:35:00
2:55 PM,73.4,64.0,72,30.02,10.0,ENE,10.4,-,N/A,,Overcast,70,2013-05-25 19:55:00
3:15 PM,75.4,64.6,69,30.01,10.0,East,13.8,17.3,N/A,,Mostly Cloudy,100,2013-05-25 20:15:00
3:35 PM,76.1,63.9,66,30.01,10.0,East,12.7,-,N/A,,Scattered Clouds,100,2013-05-25 20:35:00
3:55 PM,75.0,63.3,67,30.01,10.0,East,10.4,-,N/A,,Mostly Cloudy,100,2013-05-25 20:55:00
4:15 PM,74.7,63.1,67,30.02,10.0,ESE,9.2,-,N/A,,Overcast,110,2013-05-25 21:15:00
4:35 PM,76.8,63.9,64,30.01,10.0,SE,8.1,-,N/A,,Overcast,130,2013-05-25 21:35:00
4:55 PM,80.8,65.8,60,30.00,10.0,South,10.4,-,N/A,,Mostly Cloudy,170,2013-05-25 21:55:00
5:15 PM,82.2,65.5,57,29.99,10.0,South,12.7,17.3,N/A,,Scattered Clouds,170,2013-05-25 22:15:00
5:35 PM,82.4,63.1,52,29.99,10.0,South,13.8,-,N/A,,Scattered Clouds,180,2013-05-25 22:35:00
5:55 PM,81.5,62.8,53,29.99,10.0,South,12.7,20.7,N/A,,Scattered Clouds,190,2013-05-25 22:55:00
6:15 PM,81.3,63.1,54,29.98,10.0,South,12.7,18.4,N/A,,Mostly Cloudy,190,2013-05-25 23:15:00
6:35 PM,81.9,63.5,54,29.97,10.0,South,12.7,16.1,N/A,,Mostly Cloudy,170,2013-05-25 23:35:00
6:55 PM,80.8,63.3,55,29.97,10.0,South,9.2,-,N/A,,Mostly Cloudy,180,2013-05-25 23:55:00
7:15 PM,80.6,63.0,55,29.97,10.0,South,11.5,17.3,N/A,,Mostly Cloudy,190,2013-05-26 00:15:00
7:35 PM,80.1,63.1,56,29.97,10.0,South,10.4,-,N/A,,Overcast,180,2013-05-26 00:35:00
7:55 PM,77.7,62.8,60,29.97,10.0,SE,4.6,-,N/A,,Overcast,130,2013-05-26 00:55:00
8:15 PM,76.3,62.8,63,29.97,10.0,SE,6.9,-,N/A,,Overcast,130,2013-05-26 01:15:00
8:35 PM,76.1,63.5,65,29.97,10.0,SSE,6.9,-,N/A,,Mostly Cloudy,150,2013-05-26 01:35:00
8:55 PM,77.2,63.7,63,29.98,10.0,South,10.4,-,N/A,,Overcast,170,2013-05-26 01:55:00
9:15 PM,75.7,63.7,66,29.99,10.0,South,9.2,-,N/A,,Mostly Cloudy,170,2013-05-26 02:15:00
9:35 PM,74.1,63.7,70,30.00,10.0,South,6.9,-,N/A,,Scattered Clouds,170,2013-05-26 02:35:00
9:55 PM,73.2,63.7,72,30.01,10.0,SSE,5.8,-,N/A,,Clear,150,2013-05-26 02:55:00
10:15 PM,73.4,63.7,71,30.02,10.0,SSE,4.6,-,N/A,,Mostly Cloudy,150,2013-05-26 03:15:00
10:35 PM,73.9,63.7,70,30.03,10.0,SSE,4.6,-,N/A,,Overcast,150,2013-05-26 03:35:00
10:55 PM,71.4,63.5,76,30.02,10.0,ESE,5.8,-,N/A,,Overcast,120,2013-05-26 03:55:00
11:15 PM,70.7,63.0,76,30.03,10.0,ESE,6.9,-,N/A,,Overcast,110,2013-05-26 04:15:00
11:35 PM,69.4,62.2,78,30.01,10.0,ESE,8.1,-,N/A,,Overcast,110,2013-05-26 04:35:00
11:55 PM,69.6,62.2,77,30.01,10.0,SE,6.9,-,N/A,,Overcast,130,2013-05-26 04:55:00